KESWICK RESERVOIR (KES)

Elevation: 596' · SACRAMENTO R basin · Operator: US Bureau of Reclamation

Provisional data, subject to change.
Query executed Sunday at 6:58:35   clock

Select a sensor type for a plot of data.
Note: Reservoir Flows are daily averages.

Earlier

Date RES ELE    STORAGE    RES CHG    OUTFLOW    INFLOW   
 FEET   AF   AF   CFS   CFS  
08/26/2016 584.20 22013 172 10134 10227
08/27/2016 583.47 21568 -445 10136 9916
08/28/2016 583.82 21781 213 10141 10253
08/29/2016 584.28 22063 282 10196 10343
08/30/2016 584.68 22310 247 10162 10292
08/31/2016 584.78 22371 61 10135 10171
09/01/2016 585.33 22714 343 9466 9644
09/02/2016 585.46 22796 82 9416 9463
09/03/2016 584.42 22149 -647 9439 9116
09/04/2016 583.62 21659 -490 9437 9195
09/05/2016 584.87 22427 768 9451 9841
09/06/2016 584.99 22501 74 9016 9060
09/07/2016 585.88 23060 559 9008 9295
09/08/2016 585.83 23028 -32 9040 9028
09/09/2016 585.16 22607 -421 8583 8375
09/10/2016 585.93 23091 484 8546 8796
09/11/2016 586.00 23135 44 8545 8574
09/12/2016 585.12 22582 -553 8547 8274
09/13/2016 585.11 22576 -6 8545 8547
09/14/2016 585.19 22626 50 8547 8577
09/15/2016 584.16 21989 -637 8545 8226
09/16/2016 584.46 22174 185 8544 8640
09/17/2016 584.61 22266 92 8545 8596
09/18/2016 584.48 22186 -80 8543 8510
09/19/2016 585.32 22708 -- 8550 8818
09/20/2016 584.24 22038 -670 8003 7670
09/21/2016 583.77 21750 -288 7994 7854
09/22/2016 584.01 21896 146 7512 7590
09/23/2016 583.65 21678 -218 7489 7384
09/24/2016 583.82 21781 103 7491 7546
09/25/2016 -- -- -- -- --

Later | Latest

Warning! This data is preliminary and subject to revision.

Show KES Map | Plot KES Data | 1 Month KES Data | Real-Time KES Data | KES Info